This demonstration page uses our WeatherBlox Daily Observations layout. Learn more.

39.92423, -83.80882

Hourly Observations for August 14, 2020

Temp ( °F °C ) Dew Point ( °F °C ) Humidity (%) Winds ( mph kmh ) Pressure ( in mb ) Visibility ( mi km ) Precip ( " mm )
12:56 am 00:56 Clear 70 21.1 67 19.4 90 90 N 3 6 30.01 1016 10 16.0934 0 0
1:56 am 01:56 Clear 69 20.6 68 20 96 96 NE 3 6 30 1016 10 16.0934 0 0
2:56 am 02:56 Clear 69 20.6 69 20.6 100 100 NNW 3 6 29.98 1015 10 16.0934 0 0
3:56 am 03:56 Clear 68 20 68 20 100 100 N 3 6 29.96 1015 10 16.0934 0 0
4:56 am 04:56 Clear 68 20 68 20 100 100 Calm 29.96 1015 10 16.0934 0 0
5:56 am 05:56 Clear 67 19.4 67 19.4 100 100 NW 3 6 29.96 1015 10 16.0934 0 0
6:56 am 06:56 Sunny 65 18.3 65 18.3 100 100 Calm 29.98 1015 9 14.48406 0 0
7:56 am 07:56 Sunny 68 20 68 20 100 100 Calm 29.99 1016 10 16.0934 0 0
8:56 am 08:56 Mostly Cloudy 70 21.1 70 21.1 100 100 Calm 29.98 1015 10 16.0934 0 0
9:56 am 09:56 Mostly Cloudy 73 22.8 72 22.2 96 96 E 5 7 29.99 1016 10 16.0934 0 0
10:56 am 10:56 Partly Cloudy 76 24.4 72 22.2 88 88 E 5 7 29.99 1016 10 16.0934 0 0
11:56 am 11:56 Cloudy 78 25.6 74 23.3 87 87 VRB 3 6 30 1016 10 16.0934 0 0
12:56 pm 12:56 Sunny 78 25.6 73 22.8 85 85 WSW 3 6 29.99 1016 10 16.0934 0 0
1:56 pm 13:56 Mostly Cloudy 80 26.7 72 22.2 76 76 W 3 6 29.98 1015 10 16.0934 0 0
2:56 pm 14:56 Sunny 80 26.7 73 22.8 79 79 Calm 29.97 1015 10 16.0934 0 0
3:56 pm 15:56 Sunny 81 27.2 72 22.2 74 74 NW 5 7 29.95 1014 10 16.0934 0 0
4:56 pm 16:56 Sunny 81 27.2 71 21.7 72 72 N 6 9 29.93 1014 10 16.0934 0 0
5:56 pm 17:56 Sunny 80 26.7 72 22.2 76 76 NNW 7 11 29.93 1014 10 16.0934 0 0
6:56 pm 18:56 Sunny 79 26.1 69 20.6 72 72 NW 7 11 29.95 1014 10 16.0934 0 0
7:54 pm 19:54 Partly Cloudy with Nearby Thunderstorms 77 25 72 22 83 83 NNW 3 6 29.92 1013 10 16.0934 0 0
7:56 pm 19:56 Partly Cloudy with Nearby Thunderstorms 77 25 72 22.2 85 85 NNW 3 6 29.95 1014 10 16.0934 0 0
8:33 pm 20:33 Partly Cloudy 75 24 72 22 89 89 NNE 8 13 29.92 1013 10 16.0934 0 0
8:56 pm 20:56 Mostly Cloudy with Nearby Thunderstorms 73 22.8 69 20.6 87 87 ENE 14 22 29.97 1015 10 16.0934 0 0
9:10 pm 21:10 Mostly Cloudy 72 22 68 20 88 88 E 13 20 29.97 1015 10 16.0934 0 0
9:56 pm 21:56 Mostly Cloudy with Rain 68 20 68 20 100 100 SW 5 7 29.98 1015 9 14.48406 0 0
10:46 pm 22:46 Partly Cloudy with Nearby Thunderstorms 68 20 68 20 100 100 NNW 5 7 30 1016 10 16.0934 0.02 0.508
10:56 pm 22:56 Mostly Cloudy with Light Rain 69 20.6 69 20.6 100 100 NE 13 20 30.02 1017 10 16.0934 0.02 0.508
11:03 pm 23:03 Mostly Cloudy with Light Rain 70 21 70 21 100 100 NNE 9 15 30 1016 10 16.0934 0.001 0.001
11:11 pm 23:11 Cloudy 70 21 70 21 100 100 N 9 15 30 1016 10 16.0934 0.001 0.001
11:56 pm 23:56 Mostly Cloudy with Light Rain 68 20 68 20 100 100 N 7 11 29.99 1016 10 16.0934 0.001 0.001

Powered by AerisWeather